Total_Precipitation_Accumulation
1.67 1.69 2.64 3.90 4.67 3.74 3.24 3.02 2.57 2.27 1.71 1.35 1.11 1.14 1.59 2.01 2.27 2.65 2.67 2.70 1.78 1.56 1.84 2.49 3.24 3.14 2.91 2.86 2.89 2.81 2.65 2.40 2.26 2.35 2.35 2.35 2.34 2.31 2.23 2.24 2.23 2.29 2.20 2.09 2.28 2.59 2.59 2.54 2.54
1.29 2.06 3.26 4.44 4.12 3.21 3.23 2.92 2.52 2.08 1.50 1.11 0.90 0.88 1.00 0.97 0.89 1.47 2.70 2.87 1.72 1.42 1.62 1.95 2.89 2.90 2.87 2.88 2.70 2.64 2.40 2.13 2.02 2.07 2.13 2.16 2.24 2.42 2.50 2.45 2.43 2.43 2.19 2.01 2.05 2.45 2.55 2.52 2.39
1.76 2.79 3.88 4.17 3.21 2.96 3.24 2.91 2.33 1.54 1.12 0.99 0.92 0.81 0.91 1.19 1.21 1.80 2.60 2.14 1.59 1.43 1.68 2.39 3.04 2.85 2.82 2.70 2.49 2.47 2.35 2.14 2.02 2.01 2.04 2.17 2.38 2.53 2.55 2.58 2.52 2.43 2.21 2.09 2.17 2.52 2.43 2.39 2.30
2.28 3.33 3.73 3.41 2.80 2.50 2.50 2.44 2.02 1.49 1.13 0.81 0.80 0.92 0.91 1.30 1.49 1.79 1.95 1.57 1.43 1.46 1.68 2.40 2.86 2.62 2.52 2.48 2.40 2.31 2.34 2.35 2.13 1.96 2.03 2.29 2.69 2.72 2.74 2.74 2.46 2.38 2.25 2.27 2.36 2.51 2.48 2.42 2.38
2.71 3.39 3.44 3.17 2.78 2.48 2.08 1.91 1.79 1.66 1.31 0.94 0.89 1.10 1.41 1.92 1.79 1.63 1.60 1.41 1.29 1.27 1.41 1.96 2.57 2.40 2.33 2.31 2.29 2.18 2.23 2.33 2.24 2.01 2.16 2.46 2.84 2.90 2.82 2.63 2.39 2.38 2.36 2.42 2.61 2.63 2.65 2.53 2.37
3.19 3.13 3.26 3.21 2.99 2.64 2.20 1.65 1.49 1.52 1.22 1.00 0.99 1.19 1.85 2.31 2.11 1.93 1.62 1.62 1.44 1.28 1.24 1.46 2.03 2.22 2.12 2.14 2.26 2.18 2.16 2.23 2.17 2.09 2.14 2.35 2.79 2.81 2.75 2.62 2.43 2.33 2.39 2.61 2.91 2.83 2.68 2.46 2.36
3.10 2.98 3.00 2.65 2.74 2.96 2.31 1.43 1.48 1.50 1.38 1.16 0.90 1.19 1.78 2.12 1.92 1.79 1.59 1.58 1.63 1.56 1.42 1.31 1.39 1.64 1.85 2.00 2.15 2.17 2.13 2.06 1.96 2.06 2.12 2.47 2.93 2.69 2.53 2.54 2.48 2.41 2.48 2.59 2.77 2.67 2.52 2.46 2.45
2.49 2.60 2.55 2.54 2.74 2.91 2.08 1.28 1.17 1.38 1.34 0.92 0.97 1.33 1.62 1.60 1.50 1.48 1.53 1.69 1.69 1.64 1.50 1.29 1.19 1.25 1.49 1.62 1.80 2.06 2.12 2.02 1.89 1.96 2.12 2.44 2.96 2.75 2.52 2.41 2.60 2.74 2.71 2.82 2.91 2.71 2.51 2.49 2.38
2.07 2.60 2.89 2.91 2.81 2.47 1.69 1.35 1.10 0.98 0.99 0.90 0.91 1.03 1.14 1.03 1.13 1.28 1.31 1.38 1.52 1.45 1.33 1.21 1.16 1.22 1.34 1.46 1.55 1.92 1.97 1.85 1.66 1.66 1.95 2.11 2.39 2.40 2.43 2.51 2.84 2.85 2.84 2.89 2.97 2.90 2.65 2.36 2.25
2.13 2.60 2.63 2.11 1.72 1.64 1.41 1.26 1.12 1.20 1.27 1.08 1.05 1.06 1.09 1.09 1.14 1.18 1.17 1.20 1.24 1.17 1.04 1.00 0.98 1.07 1.20 1.26 1.65 1.99 1.77 1.68 1.48 1.50 1.58 1.76 2.13 2.43 2.16 2.42 2.90 2.84 2.77 2.69 2.82 2.83 2.45 1.95 1.65
1.74 2.15 1.81 1.55 1.27 1.08 1.14 1.13 0.91 1.12 1.35 1.14 1.09 1.06 1.10 1.20 1.18 1.20 1.17 1.06 1.01 0.93 0.84 0.79 0.72 0.72 0.81 1.07 1.43 1.76 1.90 1.90 1.89 1.72 1.62 1.72 1.65 1.79 1.69 1.66 1.84 1.94 2.01 1.95 2.09 2.24 1.96 1.67 1.59
1.65 1.62 1.45 1.43 1.06 1.03 1.02 0.97 0.92 0.99 1.11 0.98 1.03 0.95 0.95 1.06 1.09 1.07 1.11 1.02 0.91 0.86 0.81 0.72 0.68 0.63 0.66 0.75 0.95 1.19 1.38 1.49 1.58 1.51 1.39 1.54 1.52 1.58 1.59 1.49 1.40 1.36 1.46 1.61 1.63 1.81 1.83 1.62 1.52
1.72 1.68 1.37 1.13 1.01 0.96 0.88 0.86 0.87 0.98 0.93 0.83 0.93 1.00 1.03 1.04 1.06 1.10 1.17 1.17 1.01 0.99 0.96 0.84 0.72 0.68 0.69 0.75 0.81 0.89 1.07 1.21 1.26 1.35 1.31 1.37 1.51 1.57 1.52 1.36 1.30 1.18 1.25 1.39 1.50 1.54 1.61 1.66 1.62
1.53 1.51 1.53 1.36 1.15 1.04 1.02 0.90 0.80 1.00 0.96 0.91 1.00 1.09 1.06 1.08 0.99 0.98 1.05 1.15 1.15 1.10 1.03 0.97 0.85 0.82 0.79 0.77 0.79 0.87 0.95 1.01 1.04 1.05 1.07 1.22 1.42 1.46 1.50 1.43 1.42 1.33 1.32 1.42 1.43 1.37 1.51 1.69 1.63
1.39 1.66 1.69 1.53 1.26 1.12 1.15 1.29 1.00 0.95 1.01 1.03 1.15 1.09 1.00 1.02 0.96 0.93 0.93 0.99 1.07 1.06 0.99 1.00 0.98 0.98 0.96 0.92 0.85 0.84 0.93 1.01 1.02 1.00 0.92 0.98 1.16 1.26 1.36 1.38 1.33 1.34 1.45 1.50 1.55 1.38 1.42 1.48 1.48
1.75 2.16 2.32 1.70 1.42 1.20 1.40 1.64 1.17 1.09 1.12 1.07 1.08 1.05 0.97 0.94 0.89 0.88 0.90 0.88 0.89 0.88 0.87 0.94 0.92 0.95 1.00 1.00 1.00 1.00 1.01 1.10 1.04 1.03 0.96 0.93 1.00 1.14 1.31 1.34 1.28 1.27 1.45 1.60 1.69 1.59 1.57 1.55 1.54
2.05 2.16 2.05 1.70 1.39 1.27 1.36 1.39 1.13 1.10 1.13 0.96 0.94 0.92 0.87 0.80 0.78 0.74 0.77 0.82 0.81 0.79 0.81 0.83 0.87 0.85 0.92 0.99 1.01 1.11 1.15 1.18 1.13 1.10 1.02 1.01 1.08 1.21 1.41 1.52 1.52 1.46 1.50 1.56 1.55 1.65 1.68 1.67 1.68
1.72 1.61 1.50 1.45 1.21 1.15 1.20 1.06 0.94 0.97 0.97 0.87 0.76 0.69 0.68 0.69 0.64 0.62 0.66 0.71 0.73 0.77 0.78 0.76 0.80 0.81 0.84 0.97 1.06 1.24 1.38 1.37 1.36 1.25 1.16 1.20 1.36 1.53 1.68 1.69 1.78 1.80 1.73 1.74 1.71 1.77 1.74 1.68 1.74
1.11 1.23 1.27 1.18 0.90 0.93 0.97 0.87 0.86 0.87 0.86 0.79 0.69 0.58 0.56 0.59 0.56 0.55 0.59 0.65 0.67 0.72 0.76 0.77 0.74 0.80 0.84 0.88 1.02 1.26 1.52 1.63 1.74 1.63 1.41 1.35 1.49 1.79 2.06 2.01 2.09 2.16 2.11 2.08 2.06 2.29 2.25 1.99 1.80
1.07 1.28 1.26 1.13 0.80 0.76 0.82 0.76 0.68 0.69 0.74 0.64 0.60 0.58 0.52 0.52 0.48 0.46 0.48 0.53 0.57 0.59 0.66 0.72 0.72 0.78 0.81 0.85 1.03 1.21 1.36 1.37 1.53 1.63 1.57 1.48 1.47 1.66 1.84 2.12 2.27 2.25 2.40 2.51 2.47 2.83 2.98 2.48 2.04
1.05 1.09 1.06 1.03 0.84 0.75 0.75 0.82 0.64 0.58 0.60 0.55 0.49 0.50 0.46 0.47 0.48 0.46 0.45 0.49 0.50 0.50 0.51 0.55 0.61 0.69 0.81 0.92 1.13 1.35 1.58 1.67 1.67 1.56 1.64 1.64 1.54 1.61 1.75 1.91 2.07 2.12 2.29 2.48 2.60 2.91 3.45 3.22 2.55
0.99 0.72 0.66 0.73 0.96 1.04 0.84 1.07 0.75 0.62 0.65 0.57 0.47 0.43 0.40 0.43 0.46 0.55 0.51 0.51 0.48 0.48 0.50 0.54 0.64 0.78 0.97 1.15 1.36 1.58 1.77 1.83 1.69 1.67 1.70 1.59 1.49 1.48 1.61 1.75 1.87 2.02 2.08 2.27 2.36 2.49 3.08 3.50 3.16
0.66 0.57 0.55 0.64 0.87 0.87 0.66 0.81 0.73 0.61 0.73 0.66 0.54 0.46 0.41 0.41 0.44 0.48 0.49 0.53 0.56 0.58 0.65 0.70 0.86 1.08 1.33 1.52 1.77 2.05 2.01 1.89 1.79 1.72 1.69 1.64 1.62 1.57 1.58 1.75 1.81 1.84 1.93 2.07 2.41 2.69 2.98 3.24 3.28
0.48 0.57 0.64 0.73 0.94 0.95 0.58 0.68 0.75 0.58 0.60 0.66 0.60 0.50 0.42 0.38 0.45 0.55 0.64 0.75 0.84 0.88 1.05 1.26 1.49 1.63 1.72 1.83 1.96 2.07 2.04 2.03 1.98 1.78 1.67 1.64 1.68 1.73 1.73 1.78 1.80 1.78 1.82 1.95 2.21 2.54 2.78 3.11 3.35
0.50 0.87 1.26 1.30 1.27 0.91 0.46 0.66 0.74 0.53 0.45 0.51 0.53 0.44 0.38 0.40 0.50 0.66 0.85 0.99 1.14 1.32 1.49 1.62 1.78 1.93 1.89 1.84 1.89 1.93 1.92 1.89 1.88 1.81 1.72 1.65 1.62 1.67 1.69 1.75 1.87 1.93 1.98 2.11 2.29 2.47 2.43 2.62 3.06
0.54 0.80 1.30 1.45 1.19 0.82 0.59 0.86 0.80 0.57 0.45 0.40 0.33 0.30 0.40 0.55 0.68 0.81 0.89 1.03 1.22 1.43 1.53 1.54 1.63 1.75 1.75 1.70 1.68 1.68 1.72 1.72 1.67 1.58 1.54 1.59 1.66 1.63 1.56 1.59 1.70 1.80 1.97 2.03 2.11 2.17 2.14 2.25 2.51
0.53 0.58 0.64 0.93 0.78 0.77 0.78 0.91 0.81 0.54 0.46 0.41 0.36 0.38 0.54 0.75 0.95 1.12 1.24 1.37 1.43 1.52 1.61 1.52 1.52 1.59 1.60 1.56 1.52 1.55 1.54 1.58 1.58 1.49 1.48 1.48 1.49 1.41 1.29 1.28 1.35 1.44 1.50 1.59 1.75 1.86 1.95 2.03 2.16
0.42 0.55 0.75 1.11 1.26 1.22 1.07 1.05 0.95 0.72 0.61 0.64 0.70 0.78 0.83 0.94 1.19 1.50 1.79 1.96 1.81 1.58 1.52 1.51 1.44 1.45 1.56 1.59 1.53 1.50 1.58 1.58 1.55 1.53 1.46 1.44 1.46 1.38 1.26 1.18 1.15 1.14 1.11 1.14 1.33 1.52 1.64 1.75 1.90
0.43 0.60 0.78 1.03 1.15 1.46 1.64 1.51 1.14 1.13 1.12 1.16 1.24 1.27 1.28 1.37 1.35 1.52 1.76 1.95 1.89 1.59 1.35 1.39 1.47 1.49 1.52 1.52 1.53 1.53 1.51 1.41 1.39 1.41 1.39 1.35 1.36 1.42 1.38 1.25 1.17 1.24 1.24 1.20 1.26 1.29 1.35 1.43 1.57
0.53 0.69 0.89 1.29 1.21 1.19 1.49 1.53 1.19 1.17 1.20 1.28 1.43 1.47 1.47 1.39 1.28 1.28 1.35 1.42 1.51 1.41 1.20 1.16 1.31 1.43 1.44 1.43 1.46 1.47 1.37 1.27 1.27 1.27 1.19 1.06 0.99 1.00 1.12 1.24 1.15 1.11 1.12 1.15 1.21 1.22 1.27 1.32 1.42